Weather History for Cedar Rapids, IA

Change the Weather History Date:

Thursday, May 23, 2013

  Actual Average Record
Temperature  
Mean Temperature 61 °F 62 °F  
Max Temperature 69 °F 74 °F 90 °F (1967)
Min Temperature 52 °F 52 °F 31 °F (1931)
Degree Days  
Heating Degree Days 4 4  
Month to date heating degree days 151 165  
Since 1 July heating degree days 6935 6810  
Cooling Degree Days 0 2  
Month to date cooling degree days 43 23  
Year to date cooling degree days 54 30  
Growing Degree Days 11 (Base 50)    
Moisture  
Dew Point 48 °F    
Average Humidity 66    
Maximum Humidity 93    
Minimum Humidity 39    
Precipitation  
Precipitation 0.03 in 0.13 in 1.19 in (1966)
Month to date precipitation 3.93 3.04  
Year to date precipitation 16.77 10.33  
Sea Level Pressure  
Sea Level Pressure 30.06 in    
Wind  
Wind Speed 12 mph (North)    
Max Wind Speed 23 mph    
Max Gust Speed 30 mph    
Visibility 9 miles    
Events Rain    
T = Trace of Precipitation, MM = Missing Value Source: NWS Daily Summary

Daily Weather History Graph

Daily Weather History Graph

Search for Another Location

Airport:

Trip Planner

Search our weather history database for the weather conditions in past years. The results will help you decide how hot, cold, wet, or windy it might be!

Date:

Astronomy

May. 23, 2013 Rise Set
Actual Time 5:39 AM CDT 8:28 PM CDT
Civil Twilight 5:06 AM CDT 9:01 PM CDT
Nautical Twilight 4:25 AM CDT 9:42 PM CDT
Astronomical Twilight 3:38 AM CDT 10:30 PM CDT
Moon 7:00 PM CDT (5/23) 4:26 AM CDT (5/23)
Length of Visible Light 15h 54m
Length of Day
14h 48m
Waxing Gibbous, 97% of the Moon is Illuminated
May 23
Waxing Gibbous
May 24
Full
May 31
Last Quarter
Jun 8
New
Jun 16
First Quarter

Hourly Weather History & Observations

Time (CDT) Temp. Dew Point Humidity Pressure Visibility Wind Dir Wind Speed Gust Speed Precip Events Conditions
12:52 AM 55.0 °F 54.0 °F 96% 29.79 in 6.0 mi WNW 12.7 mph - 0.00 in Rain Light Rain
1:52 AM 57.0 °F 55.9 °F 96% 29.80 in 3.0 mi NW 10.4 mph - 0.01 in Rain Light Rain
2:52 AM 57.0 °F 54.0 °F 89% 29.81 in 10.0 mi North 15.0 mph - 0.00 in   Overcast
3:52 AM 55.0 °F 54.0 °F 96% 29.84 in 2.5 mi NNW 15.0 mph - 0.01 in Rain Light Rain
4:02 AM 55.4 °F 53.6 °F 94% 29.85 in 4.0 mi North 12.7 mph - 0.01 in Rain Light Rain
4:52 AM 55.0 °F 53.1 °F 93% 29.88 in 9.0 mi North 13.8 mph - 0.02 in   Light Drizzle
5:52 AM 54.0 °F 52.0 °F 93% 29.93 in 6.0 mi North 17.3 mph - 0.00 in   Light Drizzle
6:52 AM 54.0 °F 51.1 °F 90% 29.96 in 10.0 mi North 15.0 mph 25.3 mph 0.00 in   Light Drizzle
7:52 AM 55.0 °F 50.0 °F 83% 30.01 in 10.0 mi NNE 20.7 mph 29.9 mph 0.00 in   Overcast
8:52 AM 55.0 °F 50.0 °F 83% 30.05 in 10.0 mi North 13.8 mph - N/A   Overcast
9:52 AM 55.0 °F 50.0 °F 83% 30.09 in 10.0 mi North 12.7 mph - N/A   Overcast
10:52 AM 57.9 °F 48.9 °F 72% 30.09 in 10.0 mi North 17.3 mph - N/A   Mostly Cloudy
11:52 AM 62.1 °F 48.9 °F 62% 30.11 in 10.0 mi NNE 13.8 mph - N/A   Mostly Cloudy
11:56 AM 62.6 °F 48.2 °F 59% 30.11 in 10.0 mi NE 12.7 mph - N/A   Mostly Cloudy
12:52 PM 64.0 °F 48.9 °F 58% 30.11 in 10.0 mi North 18.4 mph 21.9 mph N/A   Scattered Clouds
1:52 PM 66.0 °F 48.0 °F 52% 30.12 in 10.0 mi NNE 15.0 mph 21.9 mph N/A   Scattered Clouds
2:52 PM 66.9 °F 48.0 °F 51% 30.14 in 10.0 mi North 9.2 mph 17.3 mph N/A   Mostly Cloudy
3:52 PM 66.9 °F 45.0 °F 45% 30.15 in 10.0 mi NNE 10.4 mph - N/A   Scattered Clouds
4:52 PM 66.9 °F 43.0 °F 42% 30.16 in 10.0 mi NE 6.9 mph - N/A   Mostly Cloudy
5:52 PM 68.0 °F 42.1 °F 39% 30.17 in 10.0 mi North 13.8 mph 26.5 mph N/A   Mostly Cloudy
6:52 PM 64.9 °F 39.9 °F 40% 30.18 in 10.0 mi North 11.5 mph - N/A   Clear
7:52 PM 62.1 °F 41.0 °F 46% 30.20 in 10.0 mi North 10.4 mph - N/A   Clear
8:52 PM 57.0 °F 41.0 °F 55% 30.22 in 10.0 mi North 6.9 mph - N/A   Clear
9:52 PM 55.0 °F 42.1 °F 62% 30.25 in 10.0 mi NNE 5.8 mph - N/A   Clear
10:52 PM 54.0 °F 42.1 °F 64% 30.26 in 10.0 mi NNE 6.9 mph - N/A   Clear
11:52 PM 52.0 °F 41.0 °F 66% 30.27 in 10.0 mi NNE 6.9 mph - N/A   Clear